Regional Weather Roundup
Issued by NWS

Home | Current Version | Previous Version | Text Only | Print | Product List | Glossary Off
Versions: 1 2 3 4 5 6 7 8 9 10 11 12 13 14 15 16 17 18 19 20 21 22 23 24 25 26 27 28 29 30 31 32 33 34 35 36 37 38 39 40 41 42 43 44 45 46 47 48 49 50

000
ASUS43 KFSD 292210
RWRSD

WEATHER ROUNDUP FOR SOUTH DAKOTA
NATIONAL WEATHER SERVICE SIOUX FALLS SD
500 PM CDT SUN MAY 29 2016

NOTE: "FAIR" INDICATES FEW OR NO CLOUDS BELOW 12,000 FEET WITH NO
SIGNIFICANT WEATHER AND/OR OBSTRUCTIONS TO VISIBILITY.


SDZ001>005-009-010-012>017-292300-
NORTHWEST AND NORTH CENTRAL SOUTH DAKOTA

CITY           SKY/WX    TMP DP  RH WIND       PRES   REMARKS
BUFFALO          N/A     74  46  36 SE13      29.92F
FAITH            N/A     77  48  35 S13       29.99F
MOBRIDGE       CLOUDY    74  52  46 S9        29.97F
$$

SDZ012>016-024>037-041>051-057-063-072>074-292300-
SOUTHWEST AND SOUTH CENTRAL SOUTH DAKOTA

CITY           SKY/WX    TMP DP  RH WIND       PRES   REMARKS
RAPID CTY ARPT TSTM      67  57  70 SE7       30.00F
PIERRE         SUNNY     77  50  38 SE5       29.99F
CUSTER         SUNNY     68  38  33 W9G18     30.10F
ELLSWORTH AFB  CLOUDY    74  52  45 SE10G20   30.00F
PHILIP         MOSUNNY   78  53  41 SE12      29.98F
PINE RIDGE     SUNNY     80  43  26 NW7       30.00F
WINNER         FAIR      78  55  44 SE10      30.02F
$$

SDZ004>011-016>023-039-040-292300-
NORTHEAST SOUTH DAKOTA

CITY           SKY/WX    TMP DP  RH WIND       PRES   REMARKS
ABERDEEN       MOSUNNY   81  46  29 NW10G17   29.98F
WATERTOWN      SUNNY     77  45  32 NW10      30.01F
BROOKINGS      SUNNY     76  50  40 NW16      30.02F
SISSETON         N/A     79  40  24 NW20G26   29.95F
$$

SDZ017-020-022-023-036>040-048>070-292300-
SOUTHEAST SOUTH DAKOTA

CITY           SKY/WX    TMP DP  RH WIND       PRES   REMARKS
SIOUX FALLS    MOSUNNY   79  50  36 NW8       30.02F
HURON          SUNNY     78  50  37 SW7       30.00F
CHAMBERLAIN    SUNNY     78  57  47 SE5       30.02F
MITCHELL       SUNNY     79  49  34 NE3       30.02F
YANKTON        SUNNY     79  55  44 N3        30.01F
$$

ABBREVIATIONS USED IN REMARKS
   TC - TEMPERATURE IN CELSIUS
  WCI - WIND CHILL INDEX
   HX - HEAT INDEX
  VSB - VISIBILITY





USA.gov is the U.S. government's official web portal to all federal, state and local government web resources and services.